Terminal Aerodrome Forecast
Issued by NWS Upton, NY

Home | Current Version | Previous Version | Text Only | Print | Product List | Glossary On
Versions: 1 2 3 4 5 6 7 8 9 10 11 12 13 14 15 16 17 18 19 20 21 22 23 24 25 26 27
000
FTUS41 KOKX 222300
TAFBDR
TAF
KBDR 222338Z 2300/2324 09009KT P6SM SCT050 OVC090
     FM230800 06006KT P6SM OVC050
     FM231400 10008KT P6SM BKN050 OVC120
     FM231900 10010KT P6SM SCT050 BKN120=

USA.gov is the U.S. government's official web portal to all federal, state and local government web resources and services.